AUA297W LOWW-EBBR

Flight info

Callsign AUA297W
Flight time N/A
Altitude 36000
Route MEDIX2A/11 MEDIX RENKA INBED TEKTU TESGA UMUPU T880 BATTY BATY7A
Aircraft A320/M-SDE3FGHIRWY/LB1

Departure

Time N/A
Airport Vienna International Airport (LOWW)

Arrival

Time 2026-05-03 20:36
Airport Brussels Airport (EBBR)
Time Latitude Longitude Altitude Speed Heading
2026-05-03 20:15 50.54681 7.56056 35994 ft 449 kts 274°
2026-05-03 20:15 50.55560 7.46344 35994 ft 449 kts 274°
2026-05-03 20:16 50.55917 7.36598 35996 ft 446 kts 267°
2026-05-03 20:16 50.55993 7.26855 35994 ft 446 kts 267°
2026-05-03 20:17 50.56061 7.17097 35998 ft 446 kts 267°
2026-05-03 20:17 50.55952 7.07351 35991 ft 445 kts 264°
2026-05-03 20:18 50.55675 6.97627 36017 ft 443 kts 264°
2026-05-03 20:18 50.55536 6.92856 35611 ft 434 kts 264°
2026-05-03 20:18 50.55410 6.88144 34984 ft 429 kts 264°
2026-05-03 20:18 50.55297 6.83543 34388 ft 425 kts 264°
2026-05-03 20:19 50.55186 6.78923 33761 ft 421 kts 264°
2026-05-03 20:19 50.55078 6.74341 33089 ft 418 kts 264°
2026-05-03 20:19 50.55043 6.69783 32402 ft 417 kts 269°
2026-05-03 20:19 50.55413 6.65252 31753 ft 419 kts 276°
2026-05-03 20:20 50.55968 6.60772 31123 ft 416 kts 276°
2026-05-03 20:20 50.56513 6.56325 30503 ft 413 kts 276°
2026-05-03 20:20 50.57049 6.51904 29875 ft 410 kts 276°
2026-05-03 20:20 50.57576 6.47522 29194 ft 407 kts 276°
2026-05-03 20:21 50.58098 6.43158 28498 ft 405 kts 276°
2026-05-03 20:21 50.58618 6.38820 27824 ft 402 kts 276°
2026-05-03 20:21 50.59131 6.34504 27163 ft 400 kts 276°
2026-05-03 20:21 50.59638 6.30210 26518 ft 398 kts 276°
2026-05-03 20:22 50.60144 6.25942 25888 ft 396 kts 276°
2026-05-03 20:22 50.60486 6.23068 25470 ft 394 kts 276°
2026-05-03 20:22 50.60988 6.18839 24836 ft 393 kts 276°
2026-05-03 20:22 50.61495 6.14501 24118 ft 417 kts 276°
2026-05-03 20:23 50.62022 6.09885 23391 ft 440 kts 276°
2026-05-03 20:23 50.62572 6.05106 22581 ft 445 kts 277°
2026-05-03 20:23 50.63122 6.00376 21782 ft 444 kts 277°
2026-05-03 20:23 50.63679 5.95609 21008 ft 440 kts 277°
2026-05-03 20:24 50.64228 5.90895 20248 ft 435 kts 277°
2026-05-03 20:24 50.64835 5.86246 19500 ft 433 kts 283°
2026-05-03 20:24 50.65915 5.81830 18782 ft 432 kts 293°
2026-05-03 20:24 50.67268 5.77631 18054 ft 429 kts 294°
2026-05-03 20:25 50.68613 5.73461 17250 ft 424 kts 294°
2026-05-03 20:25 50.69942 5.69329 16480 ft 420 kts 294°
2026-05-03 20:25 50.71255 5.65232 15720 ft 416 kts 294°
2026-05-03 20:25 50.72550 5.61174 15105 ft 411 kts 294°
2026-05-03 20:26 50.73828 5.57168 14497 ft 407 kts 294°
2026-05-03 20:26 50.75097 5.53199 13912 ft 403 kts 294°
2026-05-03 20:26 50.76351 5.49271 13266 ft 400 kts 294°
2026-05-03 20:26 50.77598 5.45366 12607 ft 396 kts 294°
2026-05-03 20:27 50.78834 5.41490 11966 ft 393 kts 294°
2026-05-03 20:27 50.80058 5.37641 11334 ft 390 kts 294°
2026-05-03 20:27 50.81268 5.33816 10717 ft 388 kts 294°
2026-05-03 20:27 50.82469 5.30015 10118 ft 385 kts 294°
2026-05-03 20:28 50.83661 5.26238 9479 ft 383 kts 294°
2026-05-03 20:28 50.84842 5.22485 8820 ft 379 kts 294°
2026-05-03 20:28 50.86009 5.18767 8165 ft 375 kts 294°
2026-05-03 20:28 50.87164 5.15085 7536 ft 372 kts 294°
2026-05-03 20:29 50.88415 5.11509 6935 ft 370 kts 298°
2026-05-03 20:29 50.89759 5.08048 6324 ft 368 kts 300°
2026-05-03 20:29 50.91133 5.04647 5677 ft 365 kts 300°
2026-05-03 20:29 50.92482 5.01361 5037 ft 344 kts 301°
2026-05-03 20:30 50.93746 4.98287 4400 ft 323 kts 300°
2026-05-03 20:30 50.94933 4.95386 3855 ft 304 kts 300°
2026-05-03 20:30 50.96044 4.92643 3370 ft 287 kts 300°
2026-05-03 20:30 50.97055 4.90038 2989 ft 267 kts 293°
2026-05-03 20:31 50.97532 4.87324 2622 ft 251 kts 271°
2026-05-03 20:31 50.97309 4.84691 2469 ft 234 kts 250°
2026-05-03 20:31 50.96784 4.82357 2477 ft 216 kts 248°
2026-05-03 20:31 50.96280 4.80214 2478 ft 199 kts 248°
2026-05-03 20:32 50.95815 4.78190 2476 ft 194 kts 248°
2026-05-03 20:32 50.95358 4.76188 2480 ft 193 kts 248°
2026-05-03 20:32 50.94899 4.74177 2481 ft 194 kts 248°
2026-05-03 20:32 50.94441 4.72169 2484 ft 194 kts 248°
2026-05-03 20:33 50.93991 4.70199 2472 ft 183 kts 248°
2026-05-03 20:33 50.93568 4.68345 2298 ft 174 kts 248°
2026-05-03 20:33 50.93174 4.66618 2109 ft 157 kts 248°
2026-05-03 20:33 50.92824 4.65088 1906 ft 141 kts 248°
2026-05-03 20:34 50.92498 4.63668 1725 ft 134 kts 247°
2026-05-03 20:34 50.92183 4.62293 1532 ft 132 kts 247°
2026-05-03 20:34 50.91869 4.60926 1366 ft 132 kts 247°
2026-05-03 20:34 50.91558 4.59575 1189 ft 132 kts 247°
2026-05-03 20:35 50.91239 4.58184 999 ft 133 kts 247°
2026-05-03 20:35 50.90924 4.56817 814 ft 135 kts 248°
2026-05-03 20:35 50.90601 4.55409 632 ft 136 kts 248°
2026-05-03 20:35 50.90277 4.54001 436 ft 137 kts 248°
2026-05-03 20:36 50.89955 4.52588 246 ft 136 kts 248°
2026-05-03 20:36 50.89643 4.51250 173 ft 115 kts 250°
2026-05-03 20:36 50.89415 4.50257 176 ft 75 kts 250°
2026-05-03 20:36 50.89336 4.49860 177 ft 16 kts 263°
2026-05-03 20:37 50.89364 4.49689 174 ft 18 kts 302°
2026-05-03 20:37 50.89450 4.49502 166 ft 24 kts 307°
2026-05-03 20:37 50.89536 4.49327 161 ft 13 kts 308°
2026-05-03 20:37 50.89555 4.49289 159 ft 2 kts 309°
2026-05-03 20:38 50.89587 4.49215 156 ft 15 kts 304°
2026-05-03 20:38 50.89689 4.49161 149 ft 19 kts 13°
2026-05-03 20:38 50.89830 4.49219 142 ft 24 kts 15°
2026-05-03 20:38 50.90002 4.49291 132 ft 27 kts 14°
2026-05-03 20:39 50.90178 4.49362 127 ft 26 kts 14°
2026-05-03 20:39 50.90349 4.49431 124 ft 26 kts 14°
2026-05-03 20:39 50.90532 4.49505 120 ft 28 kts 14°
2026-05-03 20:39 50.90704 4.49575 123 ft 22 kts 15°
2026-05-03 20:40 50.90760 4.49475 122 ft 16 kts 253°
2026-05-03 20:40 50.90711 4.49305 121 ft 18 kts 245°
2026-05-03 20:40 50.90640 4.49145 121 ft 15 kts 187°
2026-05-03 20:40 50.90558 4.49194 122 ft 14 kts 153°
2026-05-03 20:41 50.90434 4.49288 122 ft 18 kts 160°
2026-05-03 20:41 50.90357 4.49169 123 ft 17 kts 245°
2026-05-03 20:41 50.90306 4.48991 123 ft 13 kts 244°
2026-05-03 20:41 50.90313 4.48917 119 ft 8 kts 333°
2026-05-03 20:42 50.90355 4.48886 119 ft 2 kts 335°
2026-05-03 20:42 50.90366 4.48878 120 ft 0 kts 335°